Regional Weather Roundup
Issued by NWS Green Bay, WI

Home | Current Version | Previous Version | Graphics & Text | Print | Product List | Glossary Off
Versions: 1 2 3 4 5 6 7 8 9 10 11 12 13 14 15 16 17 18 19 20 21 22 23 24 25 26 27 28 29 30 31 32 33 34 35 36 37 38 39 40 41 42 43 44 45 46 47 48 49 50

000
ASUS43 KGRB 310559
RWRGRB

NORTH-CENTRAL AND NORTHEAST WISCONSIN REGIONAL WEATHER ROUNDUP
NATIONAL WEATHER SERVICE GREEN BAY WI
1200 AM CST SAT JAN 31 2015

WIZ005-009-010>012-018-019-310700-
NORTH CENTRAL WISCONSIN

CITY           SKY/WX    TMP DP  RH WIND       PRES   REMARKS
IRONWOOD       CLOUDY    18  10  73 SW9       30.10F WCI   6
MANITOWISH WTR NOT AVBL
ARBOR VITAE    NOT AVBL
EAGLE RIVER    NOT AVBL
LAND O LAKES   NOT AVBL
RHINELANDER    CLOUDY    14   5  67 SW7       30.15F WCI   4
PHILLIPS       NOT AVBL
ANTIGO         NOT AVBL
TOMAHAWK       NOT AVBL
MERRILL        NOT AVBL
$$

WIZ013-073-310700-
NORTHEAST WISCONSIN

CITY           SKY/WX    TMP DP  RH WIND       PRES   REMARKS
IRON MOUNTAIN  CLOUDY    18   6  59 S3        30.18F
MARINETTE      CLOUDY    19  10  68 SW6       30.24F
$$

WIZ017-030-035>037-045-310700-
CENTRAL WISCONSIN

CITY           SKY/WX    TMP DP  RH WIND       PRES   REMARKS
MEDFORD        NOT AVBL
WAUSAU         CLOUDY    15   5  64 SW3       30.18F
MOSINEE        NOT AVBL
MARSHFIELD     PTCLDY    14   4  64 S5        30.19F WCI   6
WISC RAPIDS    MOCLDY    14   5  67 S3        30.24F
STEVENS POINT  NOT AVBL
WAUPACA        NOT AVBL
SHAWANO        NOT AVBL
CLINTONVILLE   NOT AVBL
$$

WIZ038-039-048-051-310700-
FOX VALLEY

CITY           SKY/WX    TMP DP  RH WIND       PRES   REMARKS
NWS GREEN BAY  CLOUDY    20  12  71 S6        30.26F
APPLETON       NOT AVBL
OSHKOSH        CLOUDY    16   9  74 S7        30.26F WCI   6
FOND DU LAC    MOCLDY    17   8  67 S7        30.27F WCI   8
$$

WIZ022-050-052-310700-
EAST CENTRAL WISCONSIN

CITY           SKY/WX    TMP DP  RH WIND       PRES   REMARKS
STURGEON BAY   CLOUDY    19  10  68 SW7       30.27F
MANITOWOC      NOT AVBL
SHEBOYGAN      CLOUDY    18  10  71 SW3       30.29S
$$

LMZ563-521-522-541>543-310700-
LAKESHORE

STATION/POSITION TIME  TEMP    WIND        PRES    VSBY  WAVE
                       AIR SEA DIR/SP/G                  HT/PER
                 (UTC) (F)     (DEG/KT/KT) (MB)    (MI)  (FT/S)
SHEBOYGAN LKSHOR 0500   22     210/  8/  9 1027.6F
KEWAUNEE LKSHORE 0500   20     210/  7/  9 1024.7F
NORTHPORT PIER   0500   19     240/  3/  7 1025.1F
SISTER BAY LKSHO 0500   20     200/  8/ 10   N/A
CHAMBERS ISLAND  0500   19     180/  5/  9 1025.4F
MENOMINEE LKSHOR 0500   19     210/  5     1025.4F
$$


USA.gov is the U.S. government's official web portal to all federal, state and local government web resources and services.